Location: Haut Kerinec
(48.0623°N, 4.4081°W)
Time: 22:32:55
(UTC+00:00)

STARLINK-1254 - Pass Details

Date: 02 October 2020
Orbit: 548 x 551 km, 53.0° (Epoch: 26 October)

Event Time Altitude Azimuth Distance (km) Brightness Sun altitude
Exits shadow 04:19:06 42° 191° (S) 786 4.1 -20.5°
Drops below altitude 10° 04:22:28 10° 144° (SE) 1,817 6.5 -20.0°
Sets 04:24:45 0° 138° (SE) 2,707 7.5 -19.6°
